Temperature
13 13 13 13 12 12 12 12 12 12 12 12 12 12 12 12 12 12 12 12 12 11 11 11 11 11 11 11 11 11 11 11 10 10 10 11 11 11 11 11 11 11 11
13 13 13 13 13 13 12 12 12 12 12 12 12 12 12 12 12 12 12 12 11 11 11 11 11 11 11 11 11 11 10 10 10 10 10 10 10 11 11 11 11 11 11
13 13 13 13 13 12 12 12 12 12 12 12 12 12 12 12 12 12 12 11 11 11 11 11 11 11 11 11 10 10 10 10 10 10 10 10 10 10 10 10 10 10 11
13 13 13 13 12 12 12 12 12 12 12 12 12 12 12 12 12 11 11 11 11 11 11 11 10 10 10 10 10 10 10 10 10 10 10 10 10 10 10 10 10 10 10
13 13 13 13 12 12 12 12 12 12 12 12 12 12 12 12 11 11 11 11 11 11 11 10 10 10 10 10 10 10 10 10 10 10 9 9 9 9 9 9 9 9 9
13 13 13 12 12 12 12 12 12 12 12 12 12 12 11 11 11 11 11 11 11 11 10 10 10 10 10 10 10 10 10 9 9 9 9 9 9 9 9 9 9 9 9
13 13 13 12 12 12 12 12 12 12 12 12 12 11 11 11 11 11 11 11 11 10 10 10 10 10 10 10 9 9 9 9 9 9 9 9 9 9 9 9 8 8 9
13 12 12 12 12 12 12 12 12 12 12 12 12 11 11 11 11 11 11 11 11 10 10 10 10 10 9 9 9 9 9 9 9 9 9 9 9 9 8 8 8 8 8
13 12 12 12 12 12 12 12 12 12 12 12 12 11 11 11 11 11 11 11 10 10 10 10 10 9 9 9 9 9 9 9 9 9 9 9 8 8 8 8 8 8 8
13 12 12 12 12 12 12 12 12 12 12 12 12 11 11 11 11 11 11 11 10 10 10 10 9 9 9 9 9 9 9 8 8 8 8 8 8 8 8 8 8 8 8
13 12 12 12 12 12 12 12 12 12 12 12 12 12 11 11 11 11 11 10 10 10 10 9 9 9 9 9 9 9 8 8 8 8 8 8 8 8 8 8 8 7 7
12 12 12 12 12 12 12 12 12 12 12 12 12 12 11 11 11 11 10 10 10 10 10 9 9 9 9 9 9 9 8 8 8 8 8 8 8 8 8 8 8 8 7
13 13 13 13 12 12 12 12 12 12 12 12 12 11 11 11 11 10 10 10 10 10 9 9 9 9 9 9 9 8 8 8 8 8 8 7 7 7 7 7 7 7 7
13 13 13 13 13 12 12 12 12 12 12 12 12 11 11 11 11 10 10 10 10 10 9 9 9 9 9 9 8 8 8 8 8 7 7 7 7 7 7 7 7 7 7
13 13 13 13 13 13 12 12 12 12 12 12 12 12 11 11 11 11 10 10 10 10 9 9 9 9 9 8 8 8 8 8 8 7 7 7 7 7 7 7 6 6 6
13 13 13 13 13 13 12 12 12 12 12 12 12 12 12 11 11 11 10 10 10 10 9 9 9 9 8 8 8 8 8 8 7 7 7 7 7 7 6 6 6 6 6
13 13 13 13 13 13 13 13 12 12 12 12 12 12 12 11 11 11 10 10 10 10 9 9 9 8 8 8 8 8 8 7 7 7 7 7 7 7 6 6 6 6 6
13 13 13 13 13 13 13 13 13 13 12 12 12 12 12 11 11 11 10 10 10 10 9 9 9 8 8 8 8 8 7 7 7 7 7 7 6 6 6 6 6 6 5
13 13 13 13 13 13 13 13 13 13 12 12 12 12 12 11 11 11 11 10 10 10 9 9 9 8 8 8 8 7 7 7 7 7 6 6 6 6 6 6 5 5 5
13 13 13 13 13 13 13 13 13 13 12 12 12 12 12 11 11 11 11 10 10 10 9 9 9 8 8 8 7 7 7 7 6 6 6 6 6 6 6 5 5 5 5
13 13 13 13 13 13 13 13 13 13 13 12 12 12 12 11 11 11 11 10 10 10 9 9 9 8 8 8 7 7 7 6 6 6 6 6 5 5 5 5 5 5 5
12 12 13 12 13 13 13 13 13 13 12 12 12 12 12 11 11 11 11 10 10 10 9 9 9 8 8 7 7 7 6 6 6 6 5 5 5 5 5 5 5 5 5
12 12 12 12 12 13 12 12 12 12 12 12 12 12 11 11 11 11 10 10 10 9 9 9 8 8 8 7 7 6 6 6 6 5 5 5 5 5 5 4 4 4 4
12 12 12 12 12 12 12 12 12 12 12 12 11 11 11 11 11 10 10 10 10 9 9 9 8 8 7 7 7 6 6 6 5 5 5 5 4 4 4 4 4 4 4
12 12 12 12 12 12 12 12 12 12 12 12 11 11 11 11 11 10 10 10 9 9 9 8 8 8 7 7 7 6 6 6 5 5 5 4 4 4 4 4 4 4 4
12 12 12 12 12 12 12 12 12 12 12 11 11 11 11 11 11 10 10 9 9 9 9 8 8 7 7 7 6 6 6 6 5 5 5 4 4 4 4 4 4 4 4
Wind_Speed
1 1 1 1 2 2 2 3 3 3 2 2 2 2 2 2 2 1 2 3 3 3 3 2 2 2 1 1 1 1 2 2 3 4 3 4 3 4 4 4 5 4 6
1 1 1 2 2 2 2 3 2 2 2 2 2 1 1 1 1 1 2 2 2 2 2 1 1 1 0 1 1 1 1 2 3 4 3 3 3 4 4 4 4 4 3
1 1 1 2 2 2 2 2 2 2 2 2 2 1 1 1 1 1 1 1 1 1 1 1 1 0 1 2 1 1 2 1 1 2 3 3 3 3 3 3 3 3 3
1 2 1 1 1 2 2 2 2 2 2 2 1 1 1 1 2 2 1 1 1 1 0 0 1 1 1 2 2 2 2 1 1 2 3 3 3 3 1 2 3 3 3
1 2 1 1 2 2 1 2 2 2 1 1 1 1 1 2 2 2 1 1 1 2 2 1 1 1 1 2 2 2 1 1 1 2 2 2 3 2 2 2 2 3 3
1 1 1 1 2 2 2 2 2 2 2 2 2 2 2 2 3 3 2 2 1 1 2 2 2 2 3 3 3 3 2 2 2 2 2 3 4 3 3 2 1 1 3
1 1 1 1 1 2 2 2 2 2 2 2 2 2 1 2 3 3 4 2 2 1 1 2 2 3 3 3 4 5 5 5 4 3 3 4 4 4 3 2 2 2 4
2 2 1 1 1 2 2 2 2 1 1 1 1 1 1 2 3 3 4 3 2 2 1 1 1 3 3 3 3 4 4 5 5 2 3 5 4 4 3 3 3 2 3
1 1 1 1 1 1 2 2 2 1 1 1 0 0 1 2 3 2 2 2 2 2 2 2 2 3 5 3 2 3 5 5 5 5 3 3 4 3 2 1 0 0 3
1 1 1 0 0 1 2 2 1 0 1 1 1 1 0 1 3 2 2 2 2 2 3 4 4 4 5 4 1 1 3 5 4 5 5 5 4 4 3 2 2 2 2
1 1 1 1 1 2 1 1 1 0 1 1 1 2 1 2 2 3 3 2 0 1 3 3 4 6 6 5 3 2 4 3 3 3 4 4 4 3 2 2 2 2 2
1 1 2 2 2 1 1 1 1 0 1 1 1 3 3 2 2 2 3 2 1 1 2 3 4 6 6 6 4 4 4 2 1 2 3 3 3 3 3 3 3 3 3
1 1 2 2 2 1 1 1 1 1 0 1 1 2 3 3 3 3 3 3 3 2 3 6 6 6 6 5 6 5 3 1 1 1 2 3 3 3 3 2 3 3 3
1 2 2 2 2 2 1 1 1 1 1 1 1 2 2 2 3 3 3 3 4 4 4 6 6 6 5 5 5 4 2 1 1 2 3 3 3 2 2 2 2 3 2
2 3 3 2 2 2 2 2 2 3 4 4 3 3 3 3 5 4 3 3 3 3 3 3 3 3 4 4 4 4 3 2 2 2 2 2 3 3 3 2 1 1 1
2 3 3 2 2 2 2 3 4 4 5 5 6 5 4 5 6 5 5 4 4 2 1 1 2 3 3 3 4 4 3 3 3 2 2 2 2 3 3 2 1 1 2
3 3 3 3 3 3 2 2 3 5 4 5 6 7 6 6 6 5 4 4 3 1 1 2 3 3 3 3 3 3 3 3 2 2 2 2 2 2 2 2 2 2 2
3 4 3 3 3 3 4 4 3 3 3 4 5 7 7 6 5 4 2 2 2 1 1 2 3 4 3 3 3 3 3 3 2 2 2 3 2 2 2 3 2 2 3
3 3 3 3 3 3 4 3 3 3 3 3 3 3 4 4 4 3 0 0 2 2 2 3 3 3 3 2 2 2 2 2 2 2 2 3 3 2 2 3 3 3 2
3 5 4 3 3 3 3 3 3 3 3 2 3 3 1 0 1 2 2 2 3 3 3 3 3 3 2 2 2 2 2 2 3 2 3 3 3 3 3 3 2 2 2
3 4 5 4 3 3 3 3 3 3 3 2 3 3 4 2 3 3 3 3 3 3 3 3 2 2 1 1 1 1 2 2 2 3 3 3 3 3 3 2 2 2 2
3 3 3 3 3 3 3 3 2 2 2 2 3 3 3 2 2 2 2 2 2 3 2 2 1 1 1 1 1 1 1 2 2 3 3 3 3 3 2 2 3 2 2
3 3 3 3 3 4 3 3 2 2 2 2 2 2 1 2 2 2 2 2 1 1 0 1 1 1 1 1 1 0 1 2 3 3 3 3 3 2 2 2 3 3 3
3 3 3 3 3 3 3 2 2 2 2 2 2 2 2 2 2 2 1 1 0 0 1 1 1 1 1 2 1 1 1 2 2 2 2 2 3 3 2 2 3 3 3
3 3 3 4 3 3 2 2 2 2 2 2 2 2 2 1 1 1 1 0 1 1 1 1 1 1 1 1 2 2 3 4 3 3 2 2 2 3 2 3 2 2 2
4 4 4 4 4 3 3 3 2 2 2 2 2 2 2 1 1 1 1 1 1 1 0 0 1 1 1 1 2 3 3 4 4 4 3 2 2 2 2 2 3 3 3
Wind_Direction
316 313 322 292 285 291 293 287 286 290 290 277 265 261 258 271 276 257 260 267 266 275 278 267 270 261 258 257 234 226 228 206 244 276 269 280 285 283 290 271 262 251 252
313 342 320 311 332 333 316 303 300 304 305 292 286 280 274 306 289 256 276 285 263 269 280 309 311 323 303 263 242 239 244 229 221 266 289 289 278 280 280 281 275 261 254
352 355 353 344 345 322 304 313 332 340 334 331 353 14 14 1 6 340 318 311 307 262 239 204 261 342 315 287 260 255 256 269 228 237 276 276 276 289 300 299 299 297 275
24 31 15 343 332 315 319 340 335 338 342 348 14 38 47 39 27 4 5 4 7 349 352 173 228 221 258 271 270 264 257 271 268 264 280 286 285 294 307 295 306 309 301
42 29 342 326 348 353 350 337 340 347 352 340 18 40 36 46 10 4 13 24 22 10 3 348 283 291 289 284 278 266 262 257 265 267 277 291 293 304 290 272 287 298 306
76 26 338 9 34 352 336 340 353 357 355 17 39 53 44 29 8 20 30 36 31 22 356 340 331 350 343 338 324 307 279 243 242 252 264 266 269 263 265 269 269 309 304
56 6 14 56 38 347 344 359 350 353 22 27 16 38 43 6 11 18 25 51 42 20 1 350 355 1 356 353 340 341 329 305 266 234 244 256 256 249 246 262 254 252 258
35 10 20 73 38 356 353 349 338 348 8 0 3 11 21 355 3 15 26 43 37 16 353 334 338 329 331 333 342 343 330 319 302 281 240 254 258 248 228 227 234 264 281
19 343 348 72 51 348 330 306 295 321 335 330 311 351 9 329 334 351 27 38 28 350 331 314 297 296 310 334 354 337 329 322 322 325 304 296 293 277 234 126 346 307 296
290 271 276 343 104 270 261 269 270 254 279 328 357 329 323 308 328 355 45 72 33 341 331 324 316 311 311 325 319 300 305 299 319 335 337 331 320 308 286 214 206 229 256
255 261 306 313 267 240 248 273 285 339 12 11 360 327 321 308 328 9 47 87 68 330 328 321 314 321 320 319 309 260 265 275 304 319 321 324 328 326 309 275 230 207 220
274 275 289 294 285 275 264 303 317 18 46 352 352 336 324 320 336 352 20 20 346 298 301 303 308 323 330 328 325 315 320 334 332 331 324 318 318 316 304 288 273 257 235
291 283 279 293 298 271 237 260 298 311 181 280 307 307 308 315 328 337 329 324 329 319 297 307 317 324 332 328 326 330 336 343 324 312 303 295 286 289 301 311 318 316 313
243 276 277 286 305 306 284 249 229 247 236 249 252 267 287 308 310 319 320 319 329 329 320 320 326 331 341 335 334 337 331 290 251 263 281 291 303 312 310 311 312 321 331
243 267 275 265 271 289 292 266 243 241 221 215 221 213 219 264 269 266 279 289 289 286 317 338 346 346 350 342 336 331 328 333 312 294 293 304 310 312 306 312 309 327 323
252 268 268 259 260 260 269 302 300 273 271 240 221 213 227 237 267 291 300 300 298 284 72 333 315 315 310 309 313 316 317 315 302 295 298 295 292 294 301 313 311 310 304
239 254 261 256 252 253 246 247 284 307 304 280 259 245 240 252 271 291 303 314 326 67 89 288 292 295 295 298 297 295 294 293 299 311 313 307 297 295 301 308 310 311 304
265 260 258 255 251 245 242 242 240 258 278 284 277 261 259 257 264 276 298 8 352 6 251 267 280 286 288 290 293 295 298 313 324 325 322 321 319 309 310 312 312 306 303
269 268 269 269 263 258 251 246 247 255 254 264 286 297 275 269 285 291 300 194 264 270 265 271 276 279 280 283 287 294 302 314 322 330 332 323 314 306 306 309 306 304 304
266 270 272 271 278 282 275 262 258 253 250 254 259 263 266 289 298 293 265 253 254 258 260 266 275 274 270 274 288 305 322 326 329 328 317 312 308 305 301 302 302 297 293
261 271 274 280 273 268 267 257 249 241 244 250 263 254 204 209 245 261 263 257 247 245 252 257 268 280 277 283 300 314 322 319 313 308 308 306 307 310 312 311 310 309 308
257 264 267 270 275 271 269 265 255 233 235 247 273 286 226 219 249 260 261 258 249 246 238 221 247 289 267 269 283 307 311 310 310 308 308 309 307 307 308 310 316 323 325
257 258 266 268 269 274 280 279 265 239 239 251 262 267 249 245 258 264 267 267 264 260 213 112 92 9 342 357 28 358 283 280 276 275 291 308 316 313 305 303 314 323 318
243 245 258 268 271 267 265 259 243 242 238 249 260 257 246 248 259 260 261 269 250 150 100 104 115 105 50 28 18 355 314 301 295 286 287 291 302 307 309 311 309 312 306
240 240 249 256 256 253 246 242 241 247 253 257 248 248 254 254 265 261 238 194 148 122 108 112 105 103 81 40 23 8 354 353 352 342 318 307 310 309 310 312 317 318 317
248 246 248 251 247 234 227 227 235 238 245 256 249 234 220 221 232 235 182 142 131 124 103 71 96 90 73 59 31 19 13 6 3 358 347 320 325 323 323 320 325 327 325
Height
1481 1480 1478 1477 1476 1474 1473 1472 1471 1470 1469 1469 1468 1467 1466 1465 1464 1463 1462 1461 1459 1458 1457 1456 1455 1454 1453 1452 1452 1451 1450 1449 1447 1446 1446 1445 1444 1443 1442 1442 1441 1440 1440
1480 1479 1478 1476 1474 1473 1472 1471 1470 1469 1468 1467 1466 1466 1465 1464 1462 1461 1460 1458 1457 1456 1455 1453 1452 1451 1450 1450 1449 1448 1447 1446 1445 1443 1442 1441 1441 1440 1438 1438 1437 1436 1435
1480 1478 1477 1476 1474 1473 1472 1471 1470 1469 1467 1466 1465 1464 1463 1462 1461 1459 1458 1456 1455 1454 1452 1451 1450 1449 1448 1447 1446 1445 1444 1444 1443 1441 1439 1439 1438 1437 1436 1434 1433 1432 1432
1479 1477 1476 1475 1474 1473 1472 1471 1470 1468 1467 1466 1464 1463 1462 1461 1459 1458 1456 1454 1453 1452 1451 1449 1448 1447 1446 1445 1444 1443 1442 1441 1440 1439 1437 1436 1435 1434 1433 1431 1430 1429 1428
1478 1477 1476 1475 1474 1473 1472 1471 1469 1468 1467 1465 1464 1463 1461 1460 1458 1457 1455 1453 1452 1451 1450 1448 1447 1446 1444 1443 1442 1441 1440 1438 1437 1436 1435 1433 1432 1431 1430 1429 1427 1426 1425
1478 1477 1476 1475 1474 1473 1472 1471 1469 1468 1466 1465 1464 1462 1461 1459 1458 1456 1454 1453 1451 1450 1448 1447 1446 1445 1443 1442 1441 1439 1438 1437 1435 1434 1432 1431 1429 1429 1427 1426 1425 1423 1422
1478 1477 1476 1475 1474 1473 1472 1470 1469 1468 1466 1465 1463 1462 1460 1459 1457 1456 1454 1452 1451 1449 1447 1446 1445 1443 1442 1441 1439 1438 1436 1435 1433 1432 1430 1428 1427 1426 1425 1423 1422 1421 1420
1479 1477 1476 1475 1474 1473 1472 1470 1469 1468 1466 1465 1463 1462 1460 1459 1457 1456 1454 1452 1450 1449 1447 1446 1444 1442 1441 1439 1437 1435 1434 1432 1431 1429 1427 1426 1425 1423 1422 1421 1419 1418 1417
1479 1477 1476 1475 1474 1473 1472 1470 1469 1468 1466 1465 1463 1462 1460 1459 1457 1455 1454 1452 1450 1448 1447 1445 1443 1441 1439 1437 1435 1433 1431 1430 1428 1426 1425 1423 1422 1420 1419 1418 1416 1415 1414
1479 1477 1476 1475 1474 1473 1472 1470 1469 1467 1466 1465 1463 1462 1460 1458 1457 1455 1453 1451 1449 1448 1446 1444 1442 1440 1438 1436 1433 1431 1429 1427 1425 1423 1422 1420 1419 1417 1416 1415 1414 1412 1411
1478 1477 1476 1475 1474 1473 1471 1470 1469 1467 1466 1465 1463 1461 1459 1458 1456 1454 1452 1450 1449 1447 1445 1443 1441 1439 1437 1434 1432 1430 1427 1425 1423 1421 1419 1418 1416 1415 1413 1412 1411 1410 1408
1478 1477 1476 1475 1474 1473 1471 1470 1469 1467 1466 1464 1462 1460 1459 1457 1455 1454 1452 1450 1448 1446 1444 1442 1440 1437 1435 1433 1431 1428 1426 1424 1422 1420 1417 1416 1414 1412 1411 1410 1408 1407 1406
1477 1476 1475 1474 1473 1472 1471 1469 1468 1467 1465 1463 1461 1459 1458 1456 1455 1453 1451 1450 1447 1445 1443 1441 1439 1436 1434 1431 1429 1427 1425 1422 1420 1418 1416 1414 1412 1411 1409 1407 1406 1404 1403
1475 1474 1473 1472 1471 1471 1470 1468 1467 1465 1464 1462 1461 1459 1457 1455 1454 1452 1450 1448 1446 1444 1442 1439 1437 1435 1432 1430 1428 1426 1423 1421 1419 1416 1414 1413 1411 1409 1407 1405 1403 1401 1399
1474 1472 1472 1471 1470 1469 1468 1467 1466 1465 1463 1462 1460 1458 1456 1455 1453 1451 1449 1446 1444 1442 1440 1438 1435 1433 1430 1428 1426 1424 1422 1419 1417 1415 1413 1411 1409 1407 1405 1403 1401 1399 1397
1472 1471 1470 1469 1469 1468 1467 1466 1465 1464 1462 1460 1459 1458 1456 1454 1452 1450 1447 1445 1443 1440 1438 1436 1433 1431 1429 1426 1424 1422 1419 1417 1415 1413 1411 1409 1407 1405 1403 1401 1399 1397 1395
1470 1470 1469 1468 1467 1466 1465 1464 1463 1462 1461 1459 1458 1456 1454 1452 1450 1448 1446 1443 1441 1439 1436 1434 1432 1429 1427 1425 1422 1420 1417 1415 1413 1411 1409 1407 1405 1403 1401 1399 1397 1395 1393
1468 1468 1467 1466 1465 1465 1464 1463 1461 1460 1458 1457 1456 1454 1452 1450 1448 1446 1444 1441 1439 1436 1435 1432 1430 1428 1425 1423 1420 1418 1415 1413 1411 1409 1407 1405 1403 1401 1399 1397 1395 1393 1391
1466 1466 1465 1464 1463 1463 1462 1460 1459 1458 1456 1455 1453 1452 1450 1448 1446 1444 1442 1439 1437 1435 1433 1431 1428 1426 1423 1421 1418 1416 1413 1411 1409 1406 1404 1402 1401 1399 1397 1395 1393 1391 1389
1464 1463 1463 1462 1461 1460 1459 1458 1457 1455 1454 1452 1451 1449 1448 1446 1444 1442 1439 1437 1435 1433 1431 1429 1426 1424 1421 1419 1416 1414 1411 1409 1406 1404 1402 1400 1398 1396 1394 1393 1391 1389 1387
1461 1461 1460 1460 1459 1458 1457 1455 1454 1453 1451 1450 1448 1447 1445 1443 1441 1439 1437 1435 1433 1431 1429 1426 1424 1422 1419 1417 1414 1411 1409 1406 1404 1402 1400 1398 1396 1394 1392 1391 1389 1387 1385
1459 1458 1458 1457 1456 1455 1454 1453 1452 1450 1449 1448 1446 1444 1443 1441 1439 1437 1435 1433 1431 1429 1427 1424 1422 1419 1417 1414 1412 1409 1406 1404 1401 1399 1397 1395 1393 1392 1390 1389 1387 1385 1383
1456 1455 1455 1454 1453 1453 1452 1451 1450 1448 1447 1446 1444 1442 1441 1439 1437 1435 1433 1431 1429 1427 1424 1422 1420 1417 1415 1412 1410 1407 1404 1401 1399 1397 1395 1393 1391 1390 1388 1387 1385 1384 1382
1453 1453 1452 1451 1450 1450 1449 1448 1447 1446 1445 1443 1442 1440 1438 1436 1435 1433 1431 1429 1427 1425 1422 1420 1417 1415 1413 1410 1407 1405 1402 1399 1397 1395 1393 1392 1390 1388 1387 1385 1384 1382 1381
1450 1450 1449 1449 1448 1447 1446 1446 1445 1444 1442 1441 1439 1438 1436 1435 1433 1431 1429 1427 1425 1422 1420 1418 1415 1413 1411 1408 1406 1403 1401 1398 1396 1394 1392 1390 1388 1387 1385 1384 1383 1381 1380
1447 1447 1446 1446 1445 1445 1444 1443 1442 1441 1440 1438 1437 1435 1434 1432 1431 1429 1427 1425 1423 1420 1418 1416 1413 1411 1409 1407 1404 1402 1399 1397 1395 1393 1391 1389 1387 1385 1384 1383 1382 1380 1379